Terminal Aerodrome Forecast
Issued by NWS Tampa Bay Area, FL

Home | Current Version | Previous Version | Text Only | Print | Product List | Glossary On
Versions: 1 2 3 4 5 6 7 8 9 10 11 12 13 14 15 16 17 18 19 20 21 22 23 24
717
FTUS42 KTBW 171751
TAFTPA
TAF
KTPA 171751Z 1718/1824 32015G24KT P6SM BKN030
      TEMPO 1718/1721 BKN015
     FM180000 32013KT P6SM SCT030
     FM180600 01011KT P6SM SKC=

USA.gov is the U.S. government's official web portal to all federal, state and local government web resources and services.